PEASSS

Last updated on Tue Nov 28 2023 00:03:38 GMT+0000 (Coordinated Universal Time)

1 42015U 17008BV 23330.90938826 .03785946 23107-5 13183-2 0 9992 2 42015 97.1581 38.4456 0005697 276.6004 83.4639 16.25290310378355
UTC large
Height (km)
Speed (km/s)
/
Latitude / Longitude
Inclination (degrees)
Orbital Period (minutes)
Azimuth
Elevation
Range (km)
Doppler Factor

Next 0 passes for location: London (51.5072 / 0.1276)

Sorry there are no passes over London.